Location: Caltech
(34.1382°N, 118.1253°W)
Time: 10:21:30
(UTC-07:00)

Cosmos 1125 Rocket - Visible Passes

Search period start: 26 June 2016 00:00
Search period end: 06 July 2016 00:00
Orbit: 757 x 781 km, 74.0° (Epoch: 25 June)

Date Brightness Start Highest point End Pass type
(mag) Time Alt. Az. Time Alt. Az. Time Alt. Az.
26 Jun 4.3 23:26:44 43° NE 23:26:44 43° NE 23:30:32 10° NNE visible
27 Jun 5.8 01:07:00 15° WNW 01:07:46 15° WNW 01:10:45 10° NNW visible
27 Jun 4.8 22:50:17 28° ENE 22:50:17 28° ENE 22:53:28 10° NE visible
28 Jun 5.2 00:30:31 25° WNW 00:30:49 25° WNW 00:35:11 10° N visible
28 Jun 5.3 22:13:45 16° ENE 22:13:45 16° ENE 22:15:52 10° NE visible
28 Jun 4.4 23:54:00 44° WNW 23:54:00 44° WNW 23:59:03 10° N visible
29 Jun 3.5 23:17:24 77° NW 23:17:24 77° NW 23:22:36 10° NNE visible
30 Jun 3.5 22:40:43 59° E 22:40:43 59° E 22:45:52 10° NNE visible
01 Jul 6.0 00:20:57 12° W 00:23:06 15° WNW 00:26:04 10° NNW visible
01 Jul 4.2 22:03:57 32° ESE 22:04:06 33° E 22:08:48 10° NE visible
01 Jul 5.4 23:44:10 20° W 23:46:09 25° WNW 23:50:31 10° N visible
02 Jul 4.9 21:27:03 18° ESE 21:27:40 18° E 21:31:12 10° NE visible
02 Jul 4.5 23:07:16 30° WSW 23:09:20 43° WNW 23:14:24 10° N visible
03 Jul 3.6 22:30:12 34° SSW 22:32:36 78° WNW 22:37:56 10° NNE visible
04 Jul 3.5 21:52:55 25° S 21:55:58 59° ESE 22:01:12 10° NNE visible
04 Jul 6.2 23:35:30 10° W 23:38:26 15° WNW 23:41:24 10° NNW visible
05 Jul 4.2 21:15:20 13° SSE 21:19:26 33° E 21:24:08 10° NE visible
05 Jul 5.5 22:57:09 10° WSW 23:01:29 25° WNW 23:05:51 10° N visible
